sat.trackr.live / text

‹ back to catalog

STARLINK-5637

NORAD 55432 · 2023-014AT

PAYLOAD ACTIVE UNKNOWN

§ Identity

Operator
Country
US
Launch date
2023-01-31
Launch site
AFWTR
Launch vehicle
Mass (kg)
RCS (m²)

Purposes: comms

External: N2YO · Heavens-Above · Gunter

§ Orbital elements

Epoch: 2026-05-25T02:11:51.438912Z

Period
96.11 min
Inclination
69.9992°
Eccentricity
0.0003479
Mean motion
14.98337359 rev/d
Perigee alt
569.6 km
Apogee alt
574.5 km
Semi-major
6,950.2 km
B*
6.0135e-5
RAAN
271.7867°
Arg perigee
268.2120°
Mean anomaly
91.8641°
Rev number
18,251

§ Raw data

STARLINK-56371 55432U 23014AT  26145.09156758  .00000625  00000+0  60135-4 0  99992 55432  69.9992 271.7867 0003479 268.2120  91.8641 14.98337359182515

JSON: /api/v1/satellites/55432 · /tle

For live sub-satellite position, see the globe view (requires WebGL).

§ Visibility from observer

Set your observer location to see the next 7 days of passes ≥ 10°. The values pass through the URL so the page stays shareable.

No JS? Fill the form by hand. The geolocation button needs JavaScript.